Regional Weather Roundup
Issued by NWS

Home | Current Version | Previous Version | Text Only | Print | Product List | Glossary Off
Versions: 1 2 3 4 5 6 7 8 9 10 11 12 13 14 15 16 17 18 19 20 21 22 23 24 25 26 27 28 29 30 31 32 33 34 35 36 37 38 39 40 41 42 43 44 45 46

000
ASUS45 KCYS 281310
RWRWY

WYOMING REGIONAL WEATHER ROUNDUP
NATIONAL WEATHER SERVICE CHEYENNE WY
700 AM MDT FRI AUG 28 2015

NOTE:  "FAIR" INDICATES FEW OR NO CLOUDS BELOW 12,000 FEET
WITH NO SIGNIFICANT WEATHER AND/OR OBSTRUCTIONS TO VISIBILITY.

WYZ001-281400-
YELLOWSTONE NATIONAL PARK

CITY           SKY/WX    TMP DP  RH WIND       PRES   REMARKS
LK YELLOWSTONE   N/A     35  33  92 NW3       30.43S
W YELLOWSTONE  NOT AVBL

$$
WYZ002>013-054>058-071-098>099-281400-
NORTHERN WYOMING

CITY           SKY/WX    TMP DP  RH WIND       PRES   REMARKS
JACKSON        FAIR      41  41 100 CALM      30.36S
CODY           FAIR      48  41  76 CALM      30.20R
GREYBULL       FAIR      52  47  83 E3        30.16R HAZE
WORLAND        FAIR      51  49  92 CALM      30.18R FOG
SHERIDAN       FAIR      54  44  69 CALM      30.10R
BUFFALO        FAIR      61  38  42 W6        30.17R HAZE
GILLETTE       FAIR      61  44  53 SW7       30.12R
HULETT         FAIR      55  48  76 S7        30.12R
NEWCASTLE      FAIR      55  46  71 N9        30.11R

$$
WYZ014>020-022>026-101>103-281400-
CENTRAL WYOMING

CITY           SKY/WX    TMP DP  RH WIND       PRES   REMARKS
BIG PINEY      FAIR      36  32  85 E5        30.39R WCI  32
PINEDALE       FAIR      36  36 100 W5        30.40R WCI  32
DUBOIS         PTSUNNY   45  37  76 W12G21    30.35S
LANDER         FAIR      55  43  63 SW10      30.24R
RIVERTON       FAIR      51  47  86 W5        30.25R
CASPER         FAIR      57  46  66 SW12      30.22S HAZE
DOUGLAS        FAIR      59  46  62 NW13G21   30.20R

$$
WYZ021-027>030-104>119-281400-
SOUTHERN WYOMING

CITY           SKY/WX    TMP DP  RH WIND       PRES   REMARKS
EVANSTON       FAIR      52  37  56 S7        30.38R
KEMMERER       FAIR      45  36  70 NW13      30.39R
FORT BRIDGER   SUNNY     52  37  58 W8        30.40R
ROCK SPRINGS   FAIR      51  42  71 CALM      30.36R
DIXON          FAIR      45  43  91 E7        30.40R
RAWLINS        FAIR      44  40  85 CALM      30.35R FOG
SARATOGA       FAIR      48  45  87 S6        30.38R
LARAMIE        FAIR      45  43  93 CALM      30.34S
CHEYENNE       CLOUDY    59  48  67 NW10      30.24R
TORRINGTON     FAIR      58  51  78 NW9       30.11R
PINE BLUFFS    FAIR      55  48  76 W5        30.18R

$$


USA.gov is the U.S. government's official web portal to all federal, state and local government web resources and services.